CES2410 ZBYN-ZSSS

Flight info

Callsign CES2410
Flight time 1h 41m
Altitude 35100
Route ANPIG B208 HFE R343 SASAN
Aircraft B738/M-SDE2E3FGHIRWXY/LB1

Departure

Time 2026-05-05 05:43
Airport Taiyuan Wusu International Airport (ZBYN)

Arrival

Time 2026-05-05 07:25
Airport Shanghai Hongqiao International Airport (ZSSS)
Time Latitude Longitude Altitude Speed Heading
2026-05-05 05:25 37.75257 112.62940 2587 ft 0 kts 37°
2026-05-05 05:31 37.75256 112.62940 2587 ft 0 kts 37°
2026-05-05 05:32 37.75256 112.62939 2587 ft 1 kts 37°
2026-05-05 05:33 37.75244 112.62927 2587 ft 2 kts 37°
2026-05-05 05:33 37.75232 112.62916 2587 ft 2 kts 37°
2026-05-05 05:33 37.75220 112.62905 2587 ft 2 kts 37°
2026-05-05 05:33 37.75210 112.62891 2587 ft 2 kts 66°
2026-05-05 05:34 37.75206 112.62873 2587 ft 2 kts 88°
2026-05-05 05:34 37.75206 112.62855 2587 ft 2 kts 82°
2026-05-05 05:34 37.75203 112.62836 2587 ft 2 kts 84°
2026-05-05 05:34 37.75203 112.62824 2587 ft 0 kts 84°
2026-05-05 05:36 37.75203 112.62833 2587 ft 2 kts 84°
2026-05-05 05:37 37.75205 112.62846 2587 ft 0 kts 84°
2026-05-05 05:37 37.75198 112.62871 2587 ft 6 kts 125°
2026-05-05 05:37 37.75156 112.62894 2587 ft 7 kts 169°
2026-05-05 05:37 37.75100 112.62905 2587 ft 9 kts 178°
2026-05-05 05:38 37.75037 112.62863 2587 ft 10 kts 216°
2026-05-05 05:38 37.74980 112.62811 2587 ft 10 kts 216°
2026-05-05 05:38 37.74917 112.62821 2587 ft 11 kts 133°
2026-05-05 05:38 37.74853 112.62926 2587 ft 17 kts 127°
2026-05-05 05:39 37.74769 112.63065 2587 ft 19 kts 127°
2026-05-05 05:39 37.74686 112.63206 2587 ft 20 kts 127°
2026-05-05 05:39 37.74603 112.63345 2587 ft 19 kts 127°
2026-05-05 05:39 37.74517 112.63489 2587 ft 19 kts 127°
2026-05-05 05:40 37.74435 112.63628 2587 ft 20 kts 127°
2026-05-05 05:40 37.74352 112.63767 2587 ft 20 kts 127°
2026-05-05 05:40 37.74266 112.63910 2587 ft 19 kts 127°
2026-05-05 05:40 37.74182 112.64051 2587 ft 20 kts 127°
2026-05-05 05:41 37.74100 112.64189 2587 ft 20 kts 127°
2026-05-05 05:41 37.74018 112.64326 2587 ft 15 kts 127°
2026-05-05 05:41 37.73966 112.64407 2587 ft 9 kts 145°
2026-05-05 05:41 37.73900 112.64391 2587 ft 10 kts 214°
2026-05-05 05:42 37.73842 112.64339 2587 ft 10 kts 216°
2026-05-05 05:42 37.73826 112.64293 2587 ft 5 kts 306°
2026-05-05 05:42 37.73827 112.64289 2587 ft 1 kts 307°
2026-05-05 05:42 37.73922 112.64132 2587 ft 56 kts 307°
2026-05-05 05:43 37.74305 112.63494 2587 ft 124 kts 307°
2026-05-05 05:43 37.74942 112.62427 2589 ft 178 kts 307°
2026-05-05 05:43 37.75686 112.61172 3180 ft 180 kts 306°
2026-05-05 05:43 37.76437 112.59901 3797 ft 186 kts 308°
2026-05-05 05:44 37.77240 112.58603 4360 ft 191 kts 307°
2026-05-05 05:44 37.78077 112.57223 4759 ft 201 kts 307°
2026-05-05 05:44 37.78918 112.55781 5150 ft 210 kts 306°
2026-05-05 05:44 37.79817 112.54240 5483 ft 226 kts 307°
2026-05-05 05:45 37.80819 112.52585 5689 ft 251 kts 308°
2026-05-05 05:45 37.81922 112.50778 6138 ft 266 kts 307°
2026-05-05 05:45 37.83054 112.48900 6766 ft 274 kts 307°
2026-05-05 05:45 37.84221 112.46956 7463 ft 280 kts 308°
2026-05-05 05:46 37.85392 112.44991 8161 ft 285 kts 307°
2026-05-05 05:46 37.86584 112.42977 8889 ft 290 kts 307°
2026-05-05 05:46 37.87813 112.40923 9638 ft 295 kts 307°
2026-05-05 05:46 37.89057 112.38860 10363 ft 300 kts 307°
2026-05-05 05:47 37.90291 112.36683 10932 ft 312 kts 301°
2026-05-05 05:47 37.91075 112.34044 11410 ft 326 kts 278°
2026-05-05 05:47 37.90964 112.31142 11991 ft 336 kts 256°
2026-05-05 05:47 37.90042 112.28426 12688 ft 342 kts 235°
2026-05-05 05:48 37.88333 112.26296 13277 ft 352 kts 213°
2026-05-05 05:48 37.86098 112.25035 13834 ft 362 kts 194°
2026-05-05 05:48 37.83561 112.24773 14516 ft 368 kts 174°
2026-05-05 05:48 37.81102 112.25640 15271 ft 372 kts 153°
2026-05-05 05:49 37.78931 112.27336 16107 ft 373 kts 146°
2026-05-05 05:49 37.76748 112.29141 16884 ft 376 kts 148°
2026-05-05 05:49 37.74533 112.30845 17704 ft 376 kts 149°
2026-05-05 05:49 37.72290 112.32570 18468 ft 378 kts 148°
2026-05-05 05:50 37.70050 112.34338 19164 ft 381 kts 147°
2026-05-05 05:50 37.67804 112.36130 19834 ft 385 kts 147°
2026-05-05 05:50 37.65538 112.37924 20476 ft 389 kts 148°
2026-05-05 05:50 37.63253 112.39726 21101 ft 392 kts 148°
2026-05-05 05:51 37.60930 112.41560 21713 ft 396 kts 148°
2026-05-05 05:51 37.58590 112.43407 22307 ft 399 kts 148°
2026-05-05 05:51 37.56233 112.45267 22884 ft 402 kts 147°
2026-05-05 05:51 37.53855 112.47139 23447 ft 406 kts 148°
2026-05-05 05:52 37.51485 112.49003 23989 ft 409 kts 148°
2026-05-05 05:52 37.49077 112.50900 24523 ft 412 kts 147°
2026-05-05 05:52 37.46629 112.52828 25051 ft 415 kts 148°
2026-05-05 05:52 37.44197 112.54740 25557 ft 418 kts 148°
2026-05-05 05:53 37.41739 112.56671 26050 ft 421 kts 148°
2026-05-05 05:53 37.39239 112.58633 26534 ft 424 kts 148°
2026-05-05 05:53 37.36754 112.60583 26998 ft 427 kts 148°
2026-05-05 05:53 37.34235 112.62557 27455 ft 429 kts 148°
2026-05-05 05:54 37.31700 112.64542 27899 ft 432 kts 148°
2026-05-05 05:54 37.29150 112.66537 28332 ft 435 kts 148°
2026-05-05 05:54 37.26592 112.68537 28752 ft 437 kts 148°
2026-05-05 05:54 37.23985 112.70573 29167 ft 440 kts 148°
2026-05-05 05:55 37.21415 112.72579 29563 ft 442 kts 148°
2026-05-05 05:55 37.18813 112.74608 29953 ft 445 kts 148°
2026-05-05 05:55 37.16175 112.76663 30318 ft 448 kts 148°
2026-05-05 05:55 37.13521 112.78730 30734 ft 449 kts 148°
2026-05-05 05:56 37.10870 112.80791 31108 ft 451 kts 148°
2026-05-05 05:56 37.08207 112.82756 31456 ft 453 kts 152°
2026-05-05 05:56 37.05353 112.84525 31797 ft 455 kts 156°
2026-05-05 05:56 37.02376 112.85868 32119 ft 457 kts 163°
2026-05-05 05:57 36.99326 112.86896 32443 ft 459 kts 166°
2026-05-05 05:57 36.96269 112.87898 32745 ft 461 kts 165°
2026-05-05 05:57 36.93164 112.88958 33044 ft 463 kts 165°
2026-05-05 05:57 36.90052 112.90024 33374 ft 464 kts 165°
2026-05-05 05:58 36.86962 112.91065 33892 ft 460 kts 165°
2026-05-05 05:58 36.83918 112.92078 34293 ft 458 kts 165°
2026-05-05 05:58 36.80848 112.93097 34670 ft 457 kts 165°
2026-05-05 05:58 36.77774 112.94115 34913 ft 459 kts 165°
2026-05-05 05:59 36.71590 112.96154 34905 ft 458 kts 165°
2026-05-05 05:59 36.65477 112.98162 34905 ft 455 kts 165°
2026-05-05 06:00 36.59392 113.00155 34905 ft 456 kts 165°
2026-05-05 06:00 36.53262 113.02158 34905 ft 456 kts 165°
2026-05-05 06:01 36.47152 113.04150 34905 ft 456 kts 165°
2026-05-05 06:01 36.41068 113.06130 34905 ft 456 kts 165°
2026-05-05 06:02 36.34948 113.08118 34905 ft 456 kts 165°
2026-05-05 06:02 36.28808 113.10110 34905 ft 456 kts 165°
2026-05-05 06:03 36.22725 113.12149 34905 ft 456 kts 162°
2026-05-05 06:03 36.16789 113.14861 34905 ft 456 kts 159°
2026-05-05 06:04 36.10867 113.17554 34905 ft 456 kts 160°
2026-05-05 06:04 36.04913 113.20230 34905 ft 456 kts 160°
2026-05-05 06:05 35.98954 113.22908 34905 ft 456 kts 160°
2026-05-05 06:05 35.93019 113.25565 34905 ft 456 kts 160°
2026-05-05 06:06 35.87236 113.28149 34905 ft 456 kts 160°
2026-05-05 06:06 35.81116 113.30882 34905 ft 456 kts 160°
2026-05-05 06:07 35.75179 113.33540 34905 ft 456 kts 160°
2026-05-05 06:07 35.69252 113.36187 34905 ft 456 kts 160°
2026-05-05 06:08 35.63282 113.38848 34905 ft 456 kts 160°
2026-05-05 06:08 35.57335 113.41493 34905 ft 456 kts 160°
2026-05-05 06:09 35.51405 113.44120 34905 ft 456 kts 160°
2026-05-05 06:09 35.45475 113.46745 34905 ft 456 kts 160°
2026-05-05 06:10 35.39517 113.49391 34905 ft 456 kts 160°
2026-05-05 06:10 35.33566 113.52045 34905 ft 456 kts 160°
2026-05-05 06:11 35.27618 113.54688 34905 ft 456 kts 160°
2026-05-05 06:11 35.21691 113.57318 34905 ft 456 kts 160°
2026-05-05 06:12 35.15734 113.59957 34905 ft 456 kts 160°
2026-05-05 06:12 35.09813 113.62577 34905 ft 456 kts 160°
2026-05-05 06:13 35.03871 113.65196 34905 ft 456 kts 160°
2026-05-05 06:13 34.97924 113.67821 34905 ft 456 kts 160°
2026-05-05 06:14 34.91982 113.70436 34905 ft 456 kts 160°
2026-05-05 06:14 34.86018 113.73055 34905 ft 456 kts 161°
2026-05-05 06:15 34.79936 113.75163 34905 ft 456 kts 166°
2026-05-05 06:15 34.73813 113.77113 34905 ft 456 kts 165°
2026-05-05 06:16 34.67701 113.79127 34905 ft 456 kts 165°
2026-05-05 06:16 34.61638 113.81116 34905 ft 456 kts 165°
2026-05-05 06:17 34.55521 113.83198 34905 ft 456 kts 162°
2026-05-05 06:17 34.49827 113.86462 34905 ft 456 kts 146°
2026-05-05 06:18 34.44846 113.91180 34905 ft 456 kts 141°
2026-05-05 06:18 34.39876 113.95878 34905 ft 456 kts 142°
2026-05-05 06:19 34.34900 114.00591 34905 ft 456 kts 142°
2026-05-05 06:19 34.29929 114.05318 34905 ft 456 kts 142°
2026-05-05 06:20 34.24937 114.10062 34905 ft 456 kts 142°
2026-05-05 06:20 34.19988 114.14764 34905 ft 456 kts 142°
2026-05-05 06:21 34.15023 114.19477 34905 ft 456 kts 142°
2026-05-05 06:21 34.10030 114.24210 34905 ft 456 kts 142°
2026-05-05 06:22 34.05079 114.28897 34905 ft 456 kts 142°
2026-05-05 06:22 34.00100 114.33603 34905 ft 456 kts 142°
2026-05-05 06:23 33.95097 114.38326 34905 ft 456 kts 142°
2026-05-05 06:23 33.90125 114.43012 34905 ft 456 kts 142°
2026-05-05 06:24 33.85149 114.47695 34905 ft 456 kts 142°
2026-05-05 06:24 33.80161 114.52397 34905 ft 456 kts 141°
2026-05-05 06:25 33.75242 114.57127 34905 ft 456 kts 141°
2026-05-05 06:25 33.70307 114.61856 34905 ft 456 kts 141°
2026-05-05 06:26 33.65614 114.66944 34906 ft 456 kts 133°
2026-05-05 06:26 33.61399 114.72635 34905 ft 456 kts 132°
2026-05-05 06:27 33.55126 114.81141 34905 ft 456 kts 130°
2026-05-05 06:28 33.51005 114.86896 34905 ft 456 kts 131°
2026-05-05 06:28 33.46860 114.92657 34905 ft 456 kts 131°
2026-05-05 06:29 33.42741 114.98389 34905 ft 456 kts 130°
2026-05-05 06:29 33.38628 115.04105 34905 ft 456 kts 130°
2026-05-05 06:30 33.34484 115.09857 34905 ft 456 kts 130°
2026-05-05 06:30 33.30358 115.15576 34905 ft 456 kts 130°
2026-05-05 06:31 33.26237 115.21281 34905 ft 456 kts 130°
2026-05-05 06:31 33.22081 115.27024 34905 ft 456 kts 130°
2026-05-05 06:32 33.17934 115.32747 34905 ft 456 kts 130°
2026-05-05 06:32 33.13791 115.38456 34905 ft 456 kts 130°
2026-05-05 06:33 33.09665 115.44132 34905 ft 456 kts 130°
2026-05-05 06:33 33.05515 115.49833 34905 ft 456 kts 130°
2026-05-05 06:34 33.01359 115.55531 34905 ft 456 kts 130°
2026-05-05 06:34 32.97216 115.61204 34905 ft 456 kts 130°
2026-05-05 06:35 32.93072 115.66869 34905 ft 456 kts 131°
2026-05-05 06:35 32.88895 115.72570 34905 ft 456 kts 131°
2026-05-05 06:36 32.84840 115.78302 34905 ft 456 kts 129°
2026-05-05 06:36 32.80848 115.84119 34905 ft 456 kts 129°
2026-05-05 06:37 32.76823 115.89919 34905 ft 456 kts 129°
2026-05-05 06:37 32.72774 115.95747 34905 ft 456 kts 129°
2026-05-05 06:38 32.68769 116.01499 34905 ft 456 kts 129°
2026-05-05 06:38 32.64718 116.07308 34905 ft 456 kts 129°
2026-05-05 06:39 32.60693 116.13070 34905 ft 456 kts 129°
2026-05-05 06:39 32.56663 116.18829 34905 ft 456 kts 129°
2026-05-05 06:40 32.52617 116.24599 34905 ft 456 kts 129°
2026-05-05 06:40 32.48559 116.30379 34905 ft 456 kts 129°
2026-05-05 06:41 32.44532 116.36108 34905 ft 456 kts 129°
2026-05-05 06:41 32.40465 116.41883 34905 ft 456 kts 129°
2026-05-05 06:42 32.36425 116.47611 34905 ft 456 kts 129°
2026-05-05 06:42 32.32347 116.53383 34905 ft 456 kts 129°
2026-05-05 06:43 32.28318 116.59077 34905 ft 456 kts 129°
2026-05-05 06:43 32.24250 116.64818 34905 ft 456 kts 129°
2026-05-05 06:44 32.20169 116.70568 34905 ft 456 kts 130°
2026-05-05 06:44 32.16127 116.76254 34905 ft 456 kts 130°
2026-05-05 06:45 32.12060 116.81968 34905 ft 456 kts 130°
2026-05-05 06:45 32.07970 116.87704 34905 ft 456 kts 130°
2026-05-05 06:46 32.03907 116.93394 34905 ft 456 kts 130°
2026-05-05 06:46 31.99837 116.99085 34905 ft 456 kts 130°
2026-05-05 06:47 31.95733 117.04816 34905 ft 456 kts 130°
2026-05-05 06:47 31.91674 117.10474 34905 ft 456 kts 130°
2026-05-05 06:48 31.87594 117.16154 34905 ft 456 kts 130°
2026-05-05 06:48 31.86207 117.18082 34905 ft 456 kts 130°
2026-05-05 06:49 31.81672 117.24391 34905 ft 456 kts 129°
2026-05-05 06:49 31.78363 117.30673 34905 ft 456 kts 111°
2026-05-05 06:50 31.77037 117.37878 34907 ft 456 kts 94°
2026-05-05 06:50 31.76555 117.45330 34905 ft 457 kts 95°
2026-05-05 06:51 31.75992 117.52731 34905 ft 456 kts 95°
2026-05-05 06:51 31.75456 117.60168 34905 ft 456 kts 94°
2026-05-05 06:52 31.74924 117.67580 34905 ft 456 kts 95°
2026-05-05 06:52 31.74393 117.74972 34905 ft 456 kts 95°
2026-05-05 06:53 31.73858 117.82406 34905 ft 456 kts 95°
2026-05-05 06:53 31.73325 117.89767 34905 ft 456 kts 95°
2026-05-05 06:54 31.72783 117.97195 34905 ft 456 kts 95°
2026-05-05 06:54 31.72241 118.04581 34905 ft 456 kts 95°
2026-05-05 06:55 31.71694 118.11988 34905 ft 456 kts 95°
2026-05-05 06:55 31.71182 118.19407 34905 ft 456 kts 94°
2026-05-05 06:56 31.70669 118.26807 34905 ft 456 kts 94°
2026-05-05 06:56 31.70147 118.34232 34905 ft 456 kts 94°
2026-05-05 06:57 31.69624 118.41610 34905 ft 456 kts 94°
2026-05-05 06:57 31.69095 118.49019 34905 ft 456 kts 94°
2026-05-05 06:58 31.68562 118.56413 34905 ft 456 kts 94°
2026-05-05 06:58 31.68023 118.63818 34905 ft 456 kts 94°
2026-05-05 06:59 31.67479 118.71258 34905 ft 456 kts 95°
2026-05-05 06:59 31.66935 118.78619 34905 ft 456 kts 95°
2026-05-05 07:00 31.66384 118.86015 34905 ft 456 kts 95°
2026-05-05 07:00 31.65828 118.93434 34905 ft 456 kts 95°
2026-05-05 07:01 31.65287 119.00803 34905 ft 456 kts 94°
2026-05-05 07:01 31.64978 119.08220 34905 ft 456 kts 92°
2026-05-05 07:02 31.64667 119.15637 34905 ft 456 kts 93°
2026-05-05 07:02 31.64336 119.23054 34905 ft 456 kts 93°
2026-05-05 07:03 31.64000 119.30515 34905 ft 456 kts 93°
2026-05-05 07:03 31.63659 119.37927 34905 ft 456 kts 93°
2026-05-05 07:04 31.63314 119.45342 34848 ft 456 kts 93°
2026-05-05 07:04 31.63140 119.49026 34197 ft 456 kts 93°
2026-05-05 07:04 31.62965 119.52708 33427 ft 457 kts 93°
2026-05-05 07:04 31.62789 119.56402 32618 ft 459 kts 93°
2026-05-05 07:05 31.62607 119.60188 31759 ft 462 kts 93°
2026-05-05 07:05 31.62428 119.63892 30893 ft 465 kts 93°
2026-05-05 07:05 31.62243 119.67702 29976 ft 469 kts 93°
2026-05-05 07:05 31.62055 119.71531 29021 ft 472 kts 93°
2026-05-05 07:06 31.61866 119.75384 28027 ft 477 kts 93°
2026-05-05 07:06 31.61674 119.79252 26988 ft 481 kts 93°
2026-05-05 07:06 31.61481 119.83135 26107 ft 481 kts 93°
2026-05-05 07:06 31.61286 119.87003 25382 ft 477 kts 93°
2026-05-05 07:07 31.61091 119.90869 24625 ft 475 kts 93°
2026-05-05 07:07 31.60896 119.94711 23868 ft 472 kts 93°
2026-05-05 07:07 31.60701 119.98531 23088 ft 459 kts 93°
2026-05-05 07:07 31.60515 120.02158 22391 ft 445 kts 93°
2026-05-05 07:08 31.60326 120.05810 21639 ft 445 kts 93°
2026-05-05 07:08 31.60140 120.09393 21106 ft 434 kts 93°
2026-05-05 07:08 31.59962 120.12793 20628 ft 412 kts 93°
2026-05-05 07:08 31.59791 120.16063 20156 ft 392 kts 93°
2026-05-05 07:09 31.59625 120.19198 19498 ft 385 kts 93°
2026-05-05 07:09 31.59460 120.22320 19117 ft 379 kts 93°
2026-05-05 07:09 31.59297 120.25381 18660 ft 376 kts 93°
2026-05-05 07:09 31.59120 120.28392 18190 ft 373 kts 95°
2026-05-05 07:10 31.58772 120.31418 17706 ft 370 kts 100°
2026-05-05 07:10 31.58146 120.34314 17228 ft 368 kts 107°
2026-05-05 07:10 31.57334 120.37103 16761 ft 365 kts 109°
2026-05-05 07:10 31.56509 120.39933 16298 ft 362 kts 108°
2026-05-05 07:11 31.55715 120.42699 15964 ft 356 kts 108°
2026-05-05 07:11 31.54926 120.45398 15492 ft 354 kts 109°
2026-05-05 07:11 31.54116 120.48133 14966 ft 354 kts 109°
2026-05-05 07:11 31.53309 120.50850 14432 ft 354 kts 109°
2026-05-05 07:12 31.52498 120.53575 13894 ft 354 kts 109°
2026-05-05 07:12 31.51688 120.56287 13363 ft 354 kts 109°
2026-05-05 07:12 31.50882 120.58984 12827 ft 353 kts 109°
2026-05-05 07:12 31.50066 120.61710 12281 ft 353 kts 109°
2026-05-05 07:13 31.49257 120.64410 11739 ft 353 kts 109°
2026-05-05 07:13 31.48452 120.67094 11197 ft 353 kts 109°
2026-05-05 07:13 31.47638 120.69803 10650 ft 353 kts 109°
2026-05-05 07:13 31.46830 120.72492 10287 ft 346 kts 109°
2026-05-05 07:14 31.46039 120.75121 10119 ft 334 kts 109°
2026-05-05 07:14 31.45282 120.77637 9965 ft 323 kts 109°
2026-05-05 07:14 31.44545 120.80081 9623 ft 319 kts 109°
2026-05-05 07:14 31.43811 120.82515 9218 ft 317 kts 109°
2026-05-05 07:15 31.43085 120.84920 8827 ft 314 kts 109°
2026-05-05 07:15 31.42352 120.87347 8433 ft 312 kts 109°
2026-05-05 07:15 31.41632 120.89727 8053 ft 309 kts 109°
2026-05-05 07:15 31.40928 120.92056 7677 ft 307 kts 109°
2026-05-05 07:16 31.40225 120.94415 7289 ft 305 kts 107°
2026-05-05 07:16 31.39879 120.96832 6895 ft 294 kts 94°
2026-05-05 07:16 31.39756 120.99161 6544 ft 280 kts 94°
2026-05-05 07:16 31.39604 121.01395 6202 ft 276 kts 95°
2026-05-05 07:17 31.39452 121.03637 5853 ft 274 kts 94°
2026-05-05 07:17 31.39304 121.05851 5505 ft 273 kts 94°
2026-05-05 07:17 31.39156 121.08040 5162 ft 272 kts 94°
2026-05-05 07:17 31.39006 121.10258 4814 ft 271 kts 94°
2026-05-05 07:18 31.38857 121.12457 4469 ft 270 kts 94°
2026-05-05 07:18 31.38709 121.14623 4146 ft 268 kts 94°
2026-05-05 07:18 31.38563 121.16774 4011 ft 258 kts 94°
2026-05-05 07:18 31.38424 121.18807 3931 ft 246 kts 94°
2026-05-05 07:19 31.38291 121.20746 3850 ft 235 kts 94°
2026-05-05 07:19 31.38219 121.22656 3644 ft 231 kts 89°
2026-05-05 07:19 31.38238 121.24524 3389 ft 228 kts 89°
2026-05-05 07:19 31.38247 121.26353 3192 ft 221 kts 89°
2026-05-05 07:20 31.38256 121.28079 3128 ft 207 kts 89°
2026-05-05 07:20 31.38264 121.29742 3077 ft 201 kts 89°
2026-05-05 07:20 31.38124 121.31351 3008 ft 203 kts 112°
2026-05-05 07:20 31.37220 121.32585 2837 ft 207 kts 149°
2026-05-05 07:21 31.35830 121.32983 2375 ft 213 kts 182°
2026-05-05 07:21 31.34323 121.32858 1892 ft 220 kts 179°
2026-05-05 07:21 31.32833 121.32930 1765 ft 208 kts 178°
2026-05-05 07:21 31.31439 121.32997 1661 ft 193 kts 177°
2026-05-05 07:22 31.30159 121.33066 1597 ft 176 kts 177°
2026-05-05 07:22 31.28933 121.33133 1571 ft 177 kts 177°
2026-05-05 07:22 31.27743 121.33197 1319 ft 167 kts 177°
2026-05-05 07:22 31.26595 121.33260 1101 ft 165 kts 177°
2026-05-05 07:23 31.25456 121.33321 899 ft 159 kts 177°
2026-05-05 07:23 31.24354 121.33382 665 ft 157 kts 177°
2026-05-05 07:23 31.23283 121.33440 456 ft 156 kts 177°
2026-05-05 07:23 31.22202 121.33498 250 ft 155 kts 177°
2026-05-05 07:24 31.21133 121.33563 79 ft 152 kts 176°
2026-05-05 07:24 31.20154 121.33612 16 ft 123 kts 177°
2026-05-05 07:24 31.19463 121.33649 16 ft 78 kts 177°
2026-05-05 07:24 31.19051 121.33669 13 ft 50 kts 177°
2026-05-05 07:25 31.18825 121.33676 16 ft 23 kts 182°
2026-05-05 07:25 31.18706 121.33650 16 ft 14 kts 198°
2026-05-05 07:25 31.18613 121.33602 17 ft 16 kts 205°
2026-05-05 07:25 31.18509 121.33546 18 ft 11 kts 208°
2026-05-05 07:26 31.18483 121.33454 19 ft 14 kts 267°
2026-05-05 07:26 31.18477 121.33320 19 ft 18 kts 267°
2026-05-05 07:26 31.18472 121.33176 19 ft 12 kts 267°
2026-05-05 07:26 31.18468 121.33073 19 ft 10 kts 274°
2026-05-05 07:27 31.18477 121.32999 19 ft 6 kts 267°
2026-05-05 07:27 31.18476 121.32960 19 ft 4 kts 267°
2026-05-05 07:27 31.18474 121.32915 19 ft 6 kts 268°
2026-05-05 07:27 31.18473 121.32883 19 ft 0 kts 268°